Tracking 33165 objects as of 7-Feb-2026
HD Live streaming from Space Station
objects crossing your sky now

STARLINK-36197

Track STARLINK-36197 now!
10-day predictions
STARLINK-36197 is classified as:


NORAD ID: 67205
Int'l Code: 2025-304P
Perigee: 455.8 km
Apogee: 459.7 km
Inclination: 70.0 °
Period: 93.6 minutes
Semi major axis: 6828 km
RCS: Unknown
Launch date: December 17, 2025
Source: United States (US)
Launch site: AIR FORCE WESTERN TEST RANGE (AFWTR)
Your satellite tracking list
Your tracking list is empty




NASA's NSSDC Master Catalog

Two Line Element Set (TLE):
1 67205U 25304P   26038.58335648 -.02014996  00000-0 -59448-1 0  9999
2 67205  69.9999 250.9507 0002829 267.8194 324.0969 15.38481860  5887
Source of the keplerian elements: AFSPC